STARLINK-2050 (47357 NORAD) Tracking and Keplerian Element Data

This shows tracking and keplerian element data for the satellite.

Feedback or suggestion? Click here.




ElementValue
Catalog47357
NameSTARLINK-2050
Epoch Orbit175
Epoch Day101.91668981
Epoch Year2021
RAAN189.675
Inclination53.0528
Eccentricity0.0001196
Argument of Perigee89.0801
Mean Anonmoly84.0046
Mean Motion15.06396874
Decay Rate-0.00033327
L11 47357U 21005J 21101.91668981 -.00033327 00000-0 -22292-2 0 9996
L22 47357 53.0528 189.6750 0001196 89.0801 84.0046 15.06396874 1754

Live tracking and technical data element details for STARLINK-2050 (NORAD 47357). STARLINK-2050 can be tracked NOW for your location showing map with azimuth and elevation plus other details from your city location.

Track the satellite on the map from your city or location and see movement details for azimuth, elevation, latitude, longitude, range, height, and movement on the map or in text.







IsCatalogInMostPopularTable: catalog: 47357, numindb: 15
Update: records affected: 1



GetName: 47357 STARLINK-2050

Hit Count: updated at: Tue, 13 Apr 2021 04:21:50 GMT